Date String (YYYY-MM-DD hh:mm:ss) UTC,Instrument flags,absolute air pressure of the measurement (hPa),sample flow rate (lpm),inlet stack bypass flow (lpm),air temperature of the measurement (°C),ambient temperature measured by the external sensor (°C),aerosol sample conditioner tube jacket temperature (°C),OPC LED temperature (°C),internal box temperature (°C),relative humidity of the measurement (%),span deviation,mass concentration of particles derived from Lorenz-Mie calculation of OPC scattering (μg/m³),mass concentration of particles derived from Lorenz-Mie calculation of OPC scattering (μg/m³),mass concentration of particles derived from Lorenz-Mie calculation of OPC scattering (μg/m³)
DateTimeUTC,F1_M11,P_M11,Q1_M11,Q2_M11,T1_M11,T2_M11,T3_M11,T4_M11,T5_M11,U1_M11,ZSPAN_M11,X2_M11,X0_M11,X1_M11
2024-04-30 20:00:00,SystemResetWarning,0822.1,5.01,000.00,025.1,024.4,000.0,033.4,026.9,011.2,0000.0,0004.62,0012.13,0002.44
2024-04-30 20:01:00,SystemResetWarning,0822.0,5.00,000.00,025.1,024.4,000.0,033.4,026.9,012.1,0000.0,0004.60,0012.11,0002.44
2024-04-30 20:02:00,SystemResetWarning,0822.0,5.00,000.00,025.2,024.5,000.0,033.4,027.0,011.4,0000.0,0004.57,0012.46,0002.42
2024-04-30 20:03:00,SystemResetWarning,0822.1,5.00,000.00,025.2,024.5,000.0,033.5,027.0,012.1,0000.0,0004.56,0012.58,0002.44
2024-04-30 20:04:00,SystemResetWarning,0822.2,4.99,000.00,025.2,024.5,000.0,033.5,027.0,011.6,0000.0,0004.50,0012.34,0002.44
2024-04-30 20:05:00,SystemResetWarning,0822.2,4.99,000.00,025.2,024.5,000.0,033.5,027.0,011.2,0000.0,0004.48,0012.07,0002.42
2024-04-30 20:06:00,SystemResetWarning,0822.2,4.99,000.00,025.2,024.5,000.0,033.5,027.0,011.0,0000.0,0004.52,0012.14,0002.44
2024-04-30 20:07:00,SystemResetWarning,0822.2,5.01,000.00,025.3,024.6,000.0,033.5,027.0,011.1,0000.0,0004.52,0012.99,0002.44
2024-04-30 20:08:00,SystemResetWarning,0822.2,5.01,000.00,025.3,024.6,000.0,033.5,027.1,011.0,0000.0,0004.53,0013.02,0002.43
2024-04-30 20:09:00,SystemResetWarning,0822.0,4.99,000.00,025.3,024.6,000.0,033.5,027.1,011.1,0000.0,0004.54,0013.00,0002.42
2024-04-30 20:10:00,SystemResetWarning,0822.1,4.99,000.00,025.3,024.6,000.0,033.6,027.1,010.8,0000.0,0004.54,0013.17,0002.43
2024-04-30 20:11:00,SystemResetWarning,0822.1,5.00,000.00,025.3,024.6,000.0,033.6,027.1,010.9,0000.0,0004.49,0013.45,0002.41
2024-04-30 20:12:00,SystemResetWarning,0822.1,5.01,000.00,025.3,024.6,000.0,033.6,027.1,010.6,0000.0,0004.52,0013.38,0002.41
2024-04-30 20:13:00,SystemResetWarning,0822.2,5.00,000.00,025.3,024.6,000.0,033.6,027.1,010.3,0000.0,0004.63,0013.67,0002.44
2024-04-30 20:14:00,SystemResetWarning,0822.0,4.99,000.00,025.4,024.6,000.0,033.6,027.1,010.8,0000.0,0004.68,0013.74,0002.44
2024-04-30 20:15:00,SystemResetWarning,0822.4,4.99,000.00,025.4,024.7,000.0,033.6,027.1,011.0,0000.0,0004.72,0014.25,0002.43
2024-04-30 20:16:00,SystemResetWarning,0822.4,4.99,000.00,025.4,024.7,000.0,033.7,027.1,011.0,0000.0,0004.71,0014.94,0002.45
2024-04-30 20:17:00,SystemResetWarning,0822.4,5.01,000.00,025.4,024.7,000.0,033.7,027.2,010.7,0000.0,0004.68,0015.50,0002.43
2024-04-30 20:18:00,SystemResetWarning,0822.4,5.00,000.00,025.4,024.7,000.0,033.7,027.2,011.0,0000.0,0004.64,0015.31,0002.43
2024-04-30 20:19:00,SystemResetWarning,0822.4,4.99,000.00,025.4,024.7,000.0,033.7,027.2,010.9,0000.0,0004.63,0015.40,0002.45
2024-04-30 20:20:00,SystemResetWarning,0822.6,5.00,000.00,025.4,024.7,000.0,033.7,027.2,011.3,0000.0,0004.61,0015.36,0002.47
2024-04-30 20:21:00,SystemResetWarning,0822.6,5.02,000.00,025.4,024.7,000.0,033.7,027.2,010.7,0000.0,0004.62,0015.83,0002.46
2024-04-30 20:22:00,SystemResetWarning,0822.4,4.99,000.00,025.5,024.7,000.0,033.7,027.2,010.5,0000.0,0004.69,0015.91,0002.46
2024-04-30 20:23:00,SystemResetWarning,0822.6,4.99,000.00,025.5,024.8,000.0,033.8,027.2,011.6,0000.0,0004.66,0015.55,0002.45
2024-04-30 20:24:00,SystemResetWarning,0822.9,5.00,000.00,025.5,024.8,000.0,033.8,027.3,011.4,0000.0,0004.55,0014.71,0002.42
2024-04-30 20:25:00,SystemResetWarning,0822.6,5.02,000.00,025.5,024.8,000.0,033.8,027.3,010.6,0000.0,0004.46,0014.37,0002.43
2024-04-30 20:26:00,SystemResetWarning,0822.4,5.00,000.00,025.5,024.8,000.0,033.8,027.3,010.1,0000.0,0004.44,0014.27,0002.45
2024-04-30 20:27:00,SystemResetWarning,0822.4,4.99,000.00,025.5,024.8,000.0,033.8,027.3,009.9,0000.0,0004.45,0013.90,0002.45
2024-04-30 20:28:00,SystemResetWarning,0822.6,5.00,000.00,025.6,024.9,000.0,033.8,027.3,009.9,0000.0,0004.42,0013.13,0002.45
2024-04-30 20:29:00,SystemResetWarning,0822.4,5.01,000.00,025.6,024.9,000.0,033.9,027.3,010.0,0000.0,0004.43,0012.32,0002.46
2024-04-30 20:30:00,SystemResetWarning,0822.5,5.01,000.00,025.6,024.9,000.0,033.9,027.4,009.8,0000.0,0004.47,0012.54,0002.46
2024-04-30 20:31:00,SystemResetWarning,0822.8,4.99,000.00,025.6,024.9,000.0,033.9,027.4,009.9,0000.0,0004.49,0012.93,0002.45
2024-04-30 20:32:00,SystemResetWarning,0822.6,4.99,000.00,025.6,024.9,000.0,033.9,027.4,009.4,0000.0,0004.42,0012.61,0002.46
2024-04-30 20:33:00,SystemResetWarning,0822.7,5.01,000.00,025.6,024.9,000.0,033.9,027.4,009.2,0000.0,0004.33,0012.19,0002.48
2024-04-30 20:34:00,SystemResetWarning,0822.5,5.01,000.00,025.6,024.9,000.0,033.9,027.4,009.2,0000.0,0004.35,0012.39,0002.51
2024-04-30 20:35:00,SystemResetWarning,0822.7,4.99,000.00,025.6,024.9,000.0,033.9,027.4,009.5,0000.0,0004.38,0012.80,0002.53
2024-04-30 20:36:00,SystemResetWarning,0822.6,4.99,000.00,025.6,024.9,000.0,033.9,027.4,009.8,0000.0,0004.42,0013.14,0002.54
2024-04-30 20:37:00,SystemResetWarning,0822.8,5.01,000.00,025.6,024.9,000.0,033.9,027.4,009.6,0000.0,0004.45,0013.41,0002.54
2024-04-30 20:38:00,SystemResetWarning,0822.8,5.01,000.00,025.7,024.9,000.0,034.0,027.4,009.4,0000.0,0004.46,0013.41,0002.53
2024-04-30 20:39:00,SystemResetWarning,0822.6,4.99,000.00,025.7,024.9,000.0,034.0,027.4,009.3,0000.0,0004.48,0013.36,0002.53
2024-04-30 20:40:00,SystemResetWarning,0822.7,4.99,000.00,025.7,024.9,000.0,034.0,027.4,009.2,0000.0,0004.50,0013.45,0002.53
2024-04-30 20:41:00,SystemResetWarning,0822.8,5.00,000.00,025.7,025.0,000.0,034.0,027.4,009.3,0000.0,0004.47,0013.55,0002.54
2024-04-30 20:42:00,SystemResetWarning,0822.6,5.01,000.00,025.7,025.0,000.0,034.0,027.5,009.5,0000.0,0004.44,0013.17,0002.54
2024-04-30 20:43:00,SystemResetWarning,0822.7,5.00,000.00,025.7,025.0,000.0,034.0,027.5,009.6,0000.0,0004.51,0012.85,0002.54
2024-04-30 20:44:00,SystemResetWarning,0822.8,4.99,000.00,025.7,025.0,000.0,034.0,027.5,009.3,0000.0,0004.58,0012.84,0002.53
2024-04-30 20:45:00,SystemResetWarning,0822.5,4.99,000.00,025.7,025.0,000.0,034.0,027.5,009.6,0000.0,0004.60,0012.78,0002.53
2024-04-30 20:46:00,SystemResetWarning,0822.5,5.01,000.00,025.7,025.0,000.0,034.1,027.5,009.9,0000.0,0004.58,0012.56,0002.51
2024-04-30 20:47:00,SystemResetWarning,0822.7,5.01,000.00,025.8,025.1,000.0,034.1,027.5,010.0,0000.0,0004.58,0012.75,0002.50
2024-04-30 20:48:00,SystemResetWarning,0822.7,5.00,000.00,025.8,025.1,000.0,034.1,027.6,009.8,0000.0,0004.60,0012.18,0002.49
2024-04-30 20:49:00,SystemResetWarning,0822.8,5.01,000.00,025.8,025.1,000.0,034.1,027.6,010.1,0000.0,0004.59,0011.43,0002.51
2024-04-30 20:50:00,SystemResetWarning,0822.7,5.00,000.00,025.8,025.1,000.0,034.1,027.6,010.0,0000.0,0004.59,0011.44,0002.51
2024-04-30 20:51:00,SystemResetWarning,0822.7,5.00,000.00,025.8,025.1,000.0,034.1,027.6,009.7,0000.0,0004.57,0012.18,0002.50
2024-04-30 20:52:00,SystemResetWarning,0822.6,5.00,000.00,025.8,025.1,000.0,034.1,027.6,008.9,0000.0,0004.55,0011.96,0002.50
2024-04-30 20:53:00,SystemResetWarning,0822.7,5.00,000.00,025.8,025.1,000.0,034.1,027.6,009.2,0000.0,0004.57,0011.97,0002.50
2024-04-30 20:54:00,SystemResetWarning,0822.8,5.00,000.00,025.8,025.1,000.0,034.2,027.6,009.3,0000.0,0004.54,0011.78,0002.49
2024-04-30 20:55:00,SystemResetWarning,0822.5,5.00,000.00,025.9,025.1,000.0,034.2,027.6,009.0,0000.0,0004.59,0011.94,0002.51
2024-04-30 20:56:00,SystemResetWarning,0822.7,4.99,000.00,025.9,025.2,000.0,034.2,027.7,009.0,0000.0,0004.59,0011.95,0002.52
2024-04-30 20:57:00,SystemResetWarning,0822.9,5.00,000.00,025.9,025.2,000.0,034.2,027.7,009.5,0000.0,0004.66,0012.10,0002.52
2024-04-30 20:58:00,SystemResetWarning,0822.8,5.00,000.00,025.9,025.2,000.0,034.2,027.7,010.3,0000.0,0004.65,0011.83,0002.52
2024-04-30 20:59:00,SystemResetWarning,0822.7,5.01,000.00,025.9,025.2,000.0,034.2,027.7,009.4,0000.0,0004.64,0012.53,0002.51
